EW6077 Weather Reports


Display with metric or nautical units.
time (UTC)temp
F
wind
direction
speed
MPH
gust
MPH
rain 1hr
in
rain 24hr
in
rain mn
in
humidity
%
barometer
mb
20260906211552 74 68 15.0 0.0 0.00 0.00 0.00 76 1009.0
20260906210055 74 63 11.0 0.0 0.00 0.00 0.00 77 1008.8
20260906204602 74 35 10.0 0.0 0.00 0.00 0.00 78 1008.9
20260906203051 72 360 10.0 0.0 0.00 0.00 0.00 79 1008.9
20260906201604 77 55 9.0 0.0 0.00 0.00 0.00 74 1008.7
20260906200049 78 53 7.0 0.0 0.00 0.00 0.00 75 1008.5
20260906194547 81 355 6.0 0.0 0.00 0.00 0.00 71 1008.3
20260906193047 83 91 7.0 0.0 0.00 0.00 0.00 70 1008.2
20260906191545 82 69 8.0 0.0 0.00 0.00 0.00 69 1008.1
20260906190044 83 112 8.0 0.0 0.00 0.00 0.00 71 1007.9
20260906184545 82 85 9.0 0.0 0.00 0.00 0.00 73 1007.8
20260906183039 81 101 12.0 0.0 0.00 0.00 0.00 73 1008.1
20260906181537 81 86 11.0 0.0 0.00 0.00 0.00 75 1008.0
20260906180054 80 134 10.0 0.0 0.00 0.00 0.00 75 1008.3
20260906174535 80 135 10.0 0.0 0.00 0.00 0.00 74 1008.7
20260906173027 78 88 9.0 0.0 0.00 0.00 0.00 76 1009.2
20260906171525 79 102 9.0 0.0 0.00 0.00 0.00 73 1009.2
20260906170021 78 88 10.0 0.0 0.00 0.00 0.00 75 1009.6
20260906164519 77 113 11.0 0.0 0.00 0.00 0.00 75 1009.8
20260906163015 76 86 12.0 0.0 0.00 0.00 0.00 78 1009.6
20260906161517 75 77 14.0 0.0 0.00 0.00 0.00 78 1009.5
20260906160009 75 85 10.0 0.0 0.00 0.00 0.00 81 1009.8
20260906154513 75 86 9.0 0.0 0.00 0.00 0.00 79 1010.1
20260906153007 75 83 10.0 0.0 0.00 0.00 0.00 79 1009.9
20260906151503 74 77 11.0 0.0 0.00 0.00 0.00 80 1010.2
20260906150059 73 82 11.0 0.0 0.00 0.00 0.00 80 1010.3
20260906144555 72 69 11.0 0.0 0.00 0.00 0.00 81 1010.5
20260906143151 71 88 11.0 0.0 0.00 0.00 0.00 82 1010.9
20260906141546 70 80 10.0 0.0 0.00 0.00 0.00 84 1010.7
20260906140042 69 55 9.0 0.0 0.00 0.00 0.00 86 1010.8
20260906134539 68 74 9.0 0.0 0.00 0.00 0.00 88 1010.7
20260906133036 67 72 7.0 0.0 0.00 0.00 0.00 90 1010.9
20260906131541 65 74 8.0 0.0 0.00 0.00 0.00 90 1010.9
20260906130034 65 84 8.0 0.0 0.00 0.00 0.00 90 1010.8
20260906124527 65 76 6.0 0.0 0.00 0.00 0.00 91 1010.9
20260906123023 65 71 6.0 0.0 0.00 0.00 0.00 90 1010.7
20260906121524 65 72 5.0 0.0 0.00 0.00 0.00 90 1011.0
20260906120021 65 82 5.0 0.0 0.00 0.00 0.00 90 1010.8
20260906114520 66 51 4.0 0.0 0.00 0.00 0.00 90 1010.8
20260906113022 66 75 5.0 0.0 0.00 0.00 0.00 91 1011.0
20260906111519 66 60 5.0 0.0 0.00 0.00 0.00 91 1010.7
20260906110018 65 95 4.0 0.0 0.00 0.00 0.00 91 1010.7
20260906104532 65 92 3.0 0.0 0.00 0.00 0.00 91 1010.8
20260906103016 65 84 2.0 0.0 0.00 0.00 0.00 90 1010.9
20260906101516 65 84 2.0 0.0 0.00 0.00 0.00 90 1010.8
20260906100015 65 83 2.0 0.0 0.00 0.00 0.00 89 1010.6
20260906094532 66 82 3.0 0.0 0.00 0.00 0.00 89 1010.6
20260906093023 66 77 3.0 0.0 0.00 0.00 0.00 89 1010.5
20260906091513 66 83 1.0 0.0 0.00 0.00 0.00 89 1010.4
20260906090012 66 87 0.0 0.0 0.00 0.00 0.00 88 1010.5
20260906084511 66 87 0.0 0.0 0.00 0.00 0.00 88 1010.7
20260906083016 66 87 0.0 0.0 0.00 0.00 0.00 88 1010.7
20260906081510 66 87 0.0 0.0 0.00 0.00 0.00 88 1010.9
20260906080007 66 87 0.0 0.0 0.00 0.00 0.00 88 1011.1
20260906074507 66 87 3.0 0.0 0.00 0.00 0.00 88 1011.1
20260906073005 66 84 4.0 0.0 0.00 0.00 0.00 88 1011.1
20260906071504 66 83 4.0 0.0 0.00 0.00 0.00 88 1011.3
20260906070002 65 82 4.0 0.0 0.00 0.00 0.00 88 1011.3
20260906064503 65 87 3.0 0.0 0.00 0.00 0.00 88 1011.2
20260906063101 65 107 2.0 0.0 0.00 0.00 0.00 89 1011.2
20260906061601 65 107 2.0 0.0 0.00 0.00 0.00 88 1011.2
20260906060056 65 107 3.0 0.0 0.00 0.00 0.00 88 1011.0
20260906054556 64 106 2.0 0.0 0.00 0.00 0.17 89 1010.9
20260906053055 64 90 3.0 0.0 0.00 0.00 0.17 88 1010.9
20260906051605 65 90 3.0 0.0 0.00 0.00 0.17 88 1010.8
20260906050054 65 86 3.0 0.0 0.00 0.00 0.17 88 1010.6
20260906044554 66 82 3.0 0.0 0.00 0.00 0.17 86 1010.8
20260906043053 67 83 3.0 0.0 0.00 0.00 0.17 86 1010.8
20260906041555 68 85 3.0 0.0 0.00 0.00 0.17 86 1010.8
20260906040052 68 94 2.0 0.0 0.00 0.00 0.17 85 1010.7
20260906034554 69 94 3.0 0.0 0.00 0.00 0.17 84 1010.8
20260906033052 70 94 4.0 0.0 0.00 0.00 0.17 83 1010.9
20260906031550 71 92 4.0 0.0 0.00 0.00 0.17 82 1011.0
20260906030053 71 90 3.0 0.0 0.00 0.00 0.17 82 1011.0
20260906024602 71 78 4.0 0.0 0.00 0.00 0.17 82 1010.9
20260906023050 71 92 4.0 0.0 0.00 0.00 0.17 83 1010.6
20260906021549 71 86 3.0 0.0 0.00 0.00 0.17 83 1010.6
20260906020050 72 85 3.0 0.0 0.00 0.00 0.17 83 1010.6
20260906014601 73 84 4.0 0.0 0.00 0.00 0.17 81 1010.3
20260906013048 74 92 4.0 0.0 0.00 0.00 0.17 81 1010.2
20260906011547 74 97 2.0 0.0 0.00 0.00 0.17 81 1010.1
20260906010047 75 96 0.0 0.0 0.00 0.00 0.17 79 1009.7
20260906004547 75 96 1.0 0.0 0.00 0.00 0.17 79 1009.4
20260906003102 75 96 3.0 0.0 0.00 0.00 0.17 79 1009.1
20260906001548 75 94 2.0 0.0 0.00 0.00 0.17 78 1009.0
20260906000046 76 94 2.0 0.0 0.00 0.00 0.17 76 1009.1
20260905234545 76 80 2.0 0.0 0.00 0.00 0.17 76 1009.1
20260905233045 77 91 6.0 0.0 0.00 0.00 0.17 74 1009.0
20260905231544 79 74 1.0 0.0 0.00 0.00 0.17 75 1009.0
20260905230044 80 232 0.0 0.0 0.00 0.00 0.17 72 1008.8
20260905224543 80 232 0.0 0.0 0.00 0.00 0.17 71 1008.6
20260905223042 81 232 1.0 0.0 0.00 0.00 0.17 69 1008.6
20260905221545 81 231 2.0 0.0 0.00 0.00 0.17 66 1008.6
20260905220045 82 200 3.0 0.0 0.00 0.00 0.17 64 1008.6
20260905214542 83 195 4.0 0.0 0.00 0.00 0.17 62 1008.6
20260905213042 84 194 6.0 0.0 0.00 0.00 0.17 60 1008.5